This demonstration page uses our WeatherBlox Daily Observations layout. Learn more.

Left ArrowRight Arrow

38.80484, -77.04692

Hourly Observations for August 21, 2022

Temp ( °F °C ) Dew Point ( °F °C ) Humidity (%) Winds ( mph kmh ) Pressure ( in mb ) Visibility ( mi km ) Precip ( " mm )
12:52 am 00:52 Mostly Clear 76 24.4 70 21.1 82 82 S 6 9 30.11 1020 10 16 0.00 0.00
1:52 am 01:52 Mostly Clear 74 23.3 70 21.1 87 87 S 5 7 30.11 1020 10 16 0.00 0.00
2:52 am 02:52 Clear 74 23.3 71 21.7 91 91 SSE 5 7 30.11 1020 10 16 0.00 0.00
3:52 am 03:52 Clear 74 23.3 70 21.1 87 87 S 7 11 30.10 1019 10 16 0.00 0.00
4:52 am 04:52 Mostly Clear 73 22.8 70 21.1 90 90 SSE 5 7 30.11 1020 10 16 0.00 0.00
5:52 am 05:52 Mostly Cloudy 73 22.8 70 21.1 90 90 SE 6 9 30.10 1019 10 16 0.00 0.00
6:52 am 06:52 Mostly Cloudy 73 22.8 70 21.1 90 90 S 6 9 30.11 1020 10 16 0.00 0.00
7:21 am 07:21 Mostly Cloudy 73 22.8 71 21.7 94 94 S 6 9 30.12 1020 10 16 0.00 0.00
7:52 am 07:52 Mostly Cloudy 74 23.3 72 22.2 94 94 S 8 13 30.12 1020 10 16 0.00 0.00
8:34 am 08:34 Mostly Cloudy 74 23.3 72 22.2 94 94 S 7 11 30.12 1020 10 16 0.00 0.00
8:52 am 08:52 Mostly Cloudy 74 23.3 72 22.2 94 94 S 7 11 30.11 1020 10 16 0.00 0.00
9:13 am 09:13 Mostly Cloudy 76 24.4 72 22.2 88 88 S 8 13 30.12 1020 10 16 0.00 0.00
9:17 am 09:17 Mostly Cloudy 76 24.4 72 22.2 88 88 S 7 11 30.12 1020 10 16 0.00 0.00
9:52 am 09:52 Mostly Cloudy 77 25 72 22.2 84 84 S 8 13 30.11 1020 10 16 0.00 0.00
10:52 am 10:52 Mostly Cloudy 79 26.1 70 21.1 74 74 SSW 7 11 30.11 1020 10 16 0.00 0.00
11:52 am 11:52 Mostly Cloudy 81 27.2 70 21.1 69 69 S 9 15 30.09 1019 10 16 0.00 0.00
12:52 pm 12:52 Mostly Cloudy 80 26.7 70 21.1 71 71 SSW 12 19 30.11 1020 10 16 0.00 0.00
1:52 pm 13:52 Cloudy with Light Rain 78 25.6 72 22.2 82 82 S 12 19 30.09 1019 10 16 0.01 0.13
2:35 pm 14:35 Cloudy 78 25.6 72 22.2 82 82 S 13 20 30.07 1018 10 16 0.01 0.13
2:43 pm 14:43 Cloudy 78 25.6 73 22.8 85 85 S 9 15 30.06 1018 10 16 0.01 0.13
2:52 pm 14:52 Cloudy 78 25.6 72 22.2 82 82 S 10 17 30.05 1018 10 16 0.01 0.13
3:52 pm 15:52 Cloudy 79 26.1 72 22.2 79 79 SE 8 13 30.00 1016 10 16 0.00 0.00
4:52 pm 16:52 Cloudy 79 26.1 72 22.2 79 79 ESE 3 6 30.00 1016 10 16 0.00 0.00
5:23 pm 17:23 Mostly Cloudy 80 26.7 71 21.7 74 74 S 7 11 30.01 1016 10 16 0.00 0.00
5:52 pm 17:52 Mostly Cloudy 79 26.1 72 22.2 79 79 SSE 9 15 30.01 1016 10 16 0.01 0.13
6:52 pm 18:52 Cloudy with Light Rain 79 26.1 71 21.7 77 77 S 9 15 30.00 1016 10 16 0.01 0.13
7:37 pm 19:37 Cloudy 78 25.6 73 22.8 85 85 WSW 5 7 30.00 1016 10 16 0.01 0.13
7:52 pm 19:52 Cloudy with Nearby Thunderstorms 77 25 72 22.2 84 84 W 7 11 30.00 1016 10 16 0.01 0.13
7:58 pm 19:58 Cloudy 77 25 72 22.2 84 84 W 6 9 30.00 1016 10 16 0.00 0.00
8:21 pm 20:21 Cloudy with Light Rain 76 24.4 73 22.8 91 91 WSW 8 13 30.00 1016 4 6 0.01 0.13
8:24 pm 20:24 Cloudy with Heavy Rain 76 24.4 73 22.8 91 91 WSW 9 15 30.00 1016 2 3 0.04 1.02
8:32 pm 20:32 Cloudy with Light Rain 76 24.4 73 22.8 91 91 S 6 9 30.00 1016 2 3 0.16 4.06
8:36 pm 20:36 Cloudy with Light Rain 76 24.4 73 22.8 91 91 SSE 7 11 30.00 1016 4 6 0.16 4.06
8:49 pm 20:49 Cloudy with Light Rain 75 24 72 22 89 89 E 5 7 30.01 1016 10 16 0.16 4.06
8:56 pm 20:56 Cloudy with Nearby Thunderstorms 75 23.9 72 22.2 90 90 ENE 6 9 30.01 1016 10 16 0.00 0.00
9:11 pm 21:11 Cloudy 75 23.9 72 22.2 90 90 E 3 6 30.01 1016 10 16 0.00 0.00
9:37 pm 21:37 Cloudy 76 24.4 72 22.2 88 88 VRB 3 6 30.00 1016 10 16 0.00 0.00
9:52 pm 21:52 Cloudy with Light Rain 75 23.9 72 22.2 90 90 SE 13 20 29.99 1016 10 16 0.01 0.13
10:52 pm 22:52 Partly Cloudy 74 23.3 71 21.7 91 91 S 7 11 29.99 1016 10 16 0.01 0.13
11:11 pm 23:11 Partly Cloudy 74 23.3 71 21.7 91 91 S 5 7 29.99 1016 10 16 0.00 0.00
11:52 pm 23:52 Mostly Cloudy 73 22.8 71 21.7 94 94 SE 5 7 29.98 1015 10 16 0.00 0.00

Powered by AerisWeather